Regional Weather Roundup
Issued by NWS Upton, NY

Current Version | Previous Version | Graphics & Text | Print | Product List | Glossary Off
Versions: 1 2 3 4 5 6 7 8 9 10 11 12 13 14 15 16 17 18 19 20 21 22 23 24 25 26 27 28 29 30 31 32 33 34 35 36 37 38 39 40 41 42 43 44 45 46 47 48 49 50

000
ASUS41 KOKX 280205
RWROKX

REGIONAL WEATHER ROUNDUP
NATIONAL WEATHER SERVICE NEW YORK NY
1000 PM EDT WED AUG 27 2014

NOTE: "FAIR" INDICATES FEW OR NO CLOUDS BELOW 12,000 FEET WITH NO
SIGNIFICANT WEATHER AND/OR OBSTRUCTIONS TO VISIBILITY.

NYZ071-072-176-178-NJZ106-104-280300-
NEW YORK CITY METRO AREA


CITY           SKY/WX    TMP DP  RH WIND       PRES   REMARKS
CENTRAL PARK   CLOUDY    81  65  58 NE10      29.92S
LAGUARDIA APRT MOCLDY    79  66  64 E8        29.89R
KENNEDY INTL   MOCLDY    76  68  76 S7        29.89F
NEWARK/LIBERTY CLOUDY    83  65  54 SW8       29.87F
BRNX BOT. GARD   N/A     77  64  65 E3        29.91F
TETERBORO      CLOUDY    84  66  54 NE7       29.87S
$$

NYZ177-179-078>081-280300-
LONG ISLAND NEW YORK

CITY           SKY/WX    TMP DP  RH WIND       PRES   REMARKS
FARMINGDALE    MOCLDY    75  67  76 NW5       29.90F
ISLIP          MOCLDY    74  66  76 NW3       29.89S
SHIRLEY        PTCLDY    73  66  78 CALM      29.90F
WESTHAMPTON    PTCLDY    73  65  75 S5        29.91F
MONTAUK POINT    N/A     72  68  87 SW6       29.91F
$$

NYZ052-065-067-280300-
HUDSON VALLEY

CITY           SKY/WX    TMP DP  RH WIND       PRES   REMARKS
WHITE PLAINS   MOCLDY    74  67  78 CALM      29.90F
NEWBURGH       PTCLDY    75  72  88 N6        29.93F
MONTGOMERY     PTCLDY    74  69  85 CALM      29.91F
POUGHKEEPSIE   CLEAR     72  69  90 CALM      29.90S
ALBANY         CLOUDY    72  57  59 W12       29.93F
$$

NJZ001-105-106-008-010-013-015-019>022-104-280300-
NEW JERSEY

CITY           SKY/WX    TMP DP  RH WIND       PRES   REMARKS
NEWARK/LIBERTY CLOUDY    83  65  54 SW8       29.87F
TETERBORO      CLOUDY    84  66  54 NE7       29.87S
CALDWELL       MOCLDY    81  67  62 NE3       29.89S
MORRISTOWN     MOCLDY    75  70  83 CALM      29.89S
SOMERVILLE     CLOUDY    75  69  81 CALM      29.86F
LINDEN         MOCLDY    86  68  54 CALM      29.89S
SUSSEX         CLOUDY    75  71  87 CALM      29.92F
ANDOVER          N/A     76  69  79 CALM      29.93S
TRENTON        MOCLDY    79  67  66 CALM      29.89S
MILLVILLE      CLEAR     70  65  84 CALM      29.91S
ATLANTIC CITY  CLEAR     73  67  81 SW3       29.91S
WRIGHTSTOWN    PTCLDY    73  67  81 CALM      29.87F
TOMS RIVER     CLEAR     72  66  83 CALM      29.90F
BELMAR         PTCLDY    75  63  64 SW6       29.89F
$$

PAZ047>061-062-071-280300-
EASTERN PENNSYLVANIA

CITY           SKY/WX    TMP DP  RH WIND       PRES   REMARKS
PHILADELPHIA   PTCLDY    80  66  62 SW10      29.90S
ALLENTOWN      MOCLDY    78  69  73 CALM      29.90S
SCRANTON       CLOUDY    76  66  71 NE9       29.97R
$$

CTZ002-004>006-009-010-012-RIZ004-006-007-MAZ004-011-015-280300-
SOUTHERN NEW ENGLAND
 IN CT

CITY           SKY/WX    TMP DP  RH WIND       PRES   REMARKS
BRADLEY INTL   PTCLDY    75  71  87 W6        29.89S
HARTFORD       CLOUDY    77  67  71 W6        29.89S
DANBURY        PTCLDY    71  69  93 CALM      29.93S
WTRBRY/OXFORD  PTCLDY    70  64  83 N3        29.95S
BRIDGEPORT     LGT RAIN  77  71  82 CALM      29.88F
MERIDEN        MOCLDY    72  68  87 CALM      29.90F
NEW HAVEN      LGT RAIN  77  67  71 VRB3      29.89F
CHESTER        FAIR      73  66  78 CALM      29.91F
GROTON         PTCLDY    70  67  90 S3        29.89F
WILLIMANTIC    LGT RAIN  73  68  84 W3        29.89F

 IN RI

CITY           SKY/WX    TMP DP  RH WIND       PRES   REMARKS
PROVIDENCE     PTCLDY    73  63  70 SW6       29.90F
BLOCK ISLAND   CLEAR     70  63  78 SW10      29.90F
WESTERLY       MOCLDY    72  65  78 S5        29.90F

 IN MA

CITY           SKY/WX    TMP DP  RH WIND       PRES   REMARKS
BOSTON         LGT RAIN  75  69  81 SW10      29.85F
WORCESTER      TSTM      70  68  93 W10       29.92S
WESTFIELD      MOCLDY    75  72  90 NW3       29.89F
PROVINCETOWN   PTCLDY    70  61  73 SW10      29.88F
NANTUCKET      FOG       66  66 100 S6        29.91F VSB 3/4
$$

ANZ330-335-338-340-345-350-353-355-280300-
COASTAL MARINE OBSERVATIONS


STATION/POSITION TIME  SKY/WX   TEMP    WIND        PRES    VSBY  WAVE
                                AIR SEA DIR/SP/G                  HT/PER
                 (UTC)          (F)     (DEG/KT/KT) (MB)    (MI)  (FT/S)
NY HARB ENTRANCE NOT AVBL
4S FIRE IS       NOT AVBL
23SW MTP         0200                                 N/A           5/16
HUDSON CANYON    0200            73 74  250/  2/  4 1012.5          6/15
EXECUTION ROCKS  0200            77 74   90/  8/ 10   N/A
WESTERN LI SOUND 0100            79      30/  4/  6   N/A           1
CENTRAL LI SOUND 0100            75 75  230/  6/  8   N/A           1/ 3
EASTERN LI SOUND 0100            71 70  240/  6/  8   N/A
ROBBINS REEF     0200            78     170/  8/  9   N/A
$$


>>>>>>>>>>>>>>>>>>>>>>>>>>>> KEY <<<<<<<<<<<<<<<<<<<<<<<<<<<
>                                                          <
>     SKY/WX - SKY CONDITION/PRESENT WEATHER               <
>     TMP    - TEMPERATURE IN FAHRENHEIT                   <
>     DP     - DEWPOINT IN FAHRENHEIT                      <
>     RH     - RELATIVE HUMIDITY IN PERCENT                <
>     WIND   - DIRECTION AND SPEED IN MPH                  <
>     PRES   - MEAN SEA LEVEL PRESSURE IN INCHES OF HG     <
>     WCI    - WIND CHILL INDEX                            <
>     VSB    - VISIBILITY IN MILES                         <
>     HX     - HEAT INDEX                                  <
>     TC     - TEMPERATURE IN CELSIUS                      <
>     VRB    - VARIABLE WIND DIRECTION                     <
>                                                          <
>>>>>>>>>>>>>>>>>>>>>>>>>>>> KEY <<<<<<<<<<<<<<<<<<<<<<<<<<<





USA.gov is the U.S. government's official web portal to all federal, state and local government web resources and services.